Wind_Speed
29 30 31 28 26 25 22 20 21 22 22 20 18 20 19 16 15 15 18 21 20 22 21 19 20 20 19 16 15 17 17 16 16 14 13 12 12 11 10 10 9 9 10 10 11 11 12 12 12 11 11 11 11 11 11 11 11 11 10 10 10 10 9 9 9 8 8 8 7 7 7 6 5 3 3 3 2 2 2 2 3 4 5 5 7 8
33 33 30 27 26 24 24 25 25 26 25 21 19 20 20 18 16 15 18 24 23 22 22 22 21 21 20 18 16 17 17 17 17 15 14 14 13 12 11 11 10 9 8 8 9 10 11 11 12 12 12 12 11 11 11 11 11 11 11 11 11 11 11 10 10 9 9 8 8 8 7 6 5 4 4 4 3 3 3 4 5 5 6 7 8 9
36 33 29 28 27 27 28 29 28 27 27 25 21 21 21 18 17 17 18 25 26 23 24 23 22 22 21 19 19 19 19 18 17 17 16 15 14 14 13 12 11 10 9 8 8 8 9 9 10 11 12 12 12 12 12 11 12 12 12 12 12 12 12 11 10 10 9 9 9 8 7 7 6 5 5 5 5 5 6 6 7 8 8 9 9 10
36 33 30 29 30 30 31 32 30 28 29 29 25 22 21 18 18 19 21 26 26 21 24 24 22 22 22 21 22 20 20 19 18 18 17 17 16 15 15 14 13 13 12 11 10 9 8 7 8 9 10 11 12 12 13 13 13 13 13 13 13 13 12 12 11 10 10 9 9 8 8 8 7 7 7 7 7 8 8 9 10 10 11 12 12 13
36 34 32 32 31 32 34 34 32 31 30 31 29 25 21 20 20 20 23 28 27 25 26 24 23 24 24 24 23 22 21 20 20 20 19 18 18 17 15 15 14 14 13 12 12 11 10 9 9 9 9 9 10 11 12 13 14 14 14 14 14 13 13 12 11 11 10 10 9 9 9 9 8 8 9 9 10 10 11 12 12 13 14 14 15 16
37 36 34 34 34 36 36 34 34 33 32 31 31 29 24 21 22 21 22 28 29 28 28 26 26 26 26 25 23 23 23 22 21 21 21 20 19 17 16 16 15 14 14 13 13 13 12 12 11 10 9 9 10 11 11 12 13 13 14 14 15 14 14 13 12 11 11 10 10 10 10 10 10 10 11 11 12 12 13 14 14 15 16 16 17 17
38 37 36 37 38 38 37 36 36 34 33 32 31 30 27 25 24 21 22 28 29 28 28 30 29 25 26 26 24 25 25 23 23 22 22 21 20 18 18 17 17 16 16 15 15 14 13 13 13 12 12 12 11 12 12 11 12 12 13 14 15 15 14 14 13 13 12 12 12 12 12 12 12 12 13 13 14 14 14 15 15 16 16 16 16 16
35 37 40 41 40 40 39 38 35 33 35 35 31 29 28 28 26 22 24 29 29 27 28 31 30 27 28 26 24 26 26 25 26 24 23 22 21 20 19 18 18 18 18 17 16 16 15 15 14 14 14 13 13 13 12 12 13 13 13 14 14 15 14 14 14 14 14 14 13 13 13 13 13 13 14 14 15 15 15 15 15 15 14 13 13 14
31 36 42 42 39 42 41 36 33 35 37 34 31 30 27 28 29 26 26 28 27 28 28 29 30 31 31 27 23 25 27 28 27 26 25 24 24 23 22 20 19 19 19 19 18 17 17 16 16 16 16 16 16 14 13 14 16 15 14 14 14 14 15 15 15 14 14 14 14 14 13 13 13 14 15 15 15 15 14 14 14 13 12 11 12 12
33 35 42 43 41 45 42 34 34 38 37 33 33 32 25 25 27 28 28 26 25 29 26 24 27 32 32 27 25 28 29 28 28 28 26 25 25 25 24 22 21 21 21 19 19 19 19 19 18 18 18 18 17 16 16 16 17 16 15 15 15 15 15 15 15 15 15 15 14 14 14 14 14 15 16 16 15 14 14 13 12 11 11 10 11 12
35 35 41 42 41 44 41 35 37 41 39 36 38 34 24 24 29 30 30 27 27 33 29 24 26 30 31 29 29 29 27 26 28 28 25 24 25 24 24 24 23 22 21 20 20 20 20 21 20 20 19 18 18 17 17 17 17 17 17 17 17 16 15 15 15 16 16 16 15 15 15 14 15 16 16 16 15 14 13 12 12 11 10 11 12 13
35 37 39 39 39 42 42 39 39 42 42 41 42 37 28 29 32 30 30 31 34 36 31 26 27 30 31 32 32 28 24 26 28 26 24 24 23 23 24 24 22 22 19 17 18 19 21 22 21 21 19 19 18 17 17 18 18 18 18 18 18 17 16 15 16 17 17 16 16 15 15 14 15 15 16 15 14 13 12 12 11 11 11 12 13 14
33 35 37 37 38 42 44 42 43 45 45 45 45 40 33 34 33 31 33 34 36 35 28 25 26 31 35 32 31 30 26 26 28 26 26 26 21 19 24 24 23 23 18 14 16 18 19 20 20 20 20 19 18 17 18 18 18 18 19 19 19 18 17 17 17 17 17 16 16 15 14 14 15 15 15 15 14 13 12 12 11 12 12 12 14 15
32 34 35 35 36 41 44 45 47 48 47 47 47 42 39 39 36 34 34 34 35 33 29 27 26 32 39 33 28 31 28 22 24 27 28 25 17 14 22 26 26 25 19 12 14 17 17 17 17 17 18 18 18 18 18 18 17 18 19 19 20 20 20 19 18 18 17 17 16 15 15 15 15 16 15 15 14 14 13 12 12 13 13 13 14 16
32 34 33 31 34 39 42 46 48 47 47 49 47 45 47 47 41 35 34 36 35 30 28 30 33 36 35 28 26 31 31 26 24 26 26 20 15 17 21 21 22 23 19 12 9 12 14 15 16 15 15 15 16 16 16 15 16 17 18 19 20 21 20 20 19 19 19 18 17 15 15 16 16 16 16 15 15 14 13 13 14 14 15 16 17 18
32 34 32 31 33 36 39 43 46 46 49 50 48 48 53 53 45 36 33 34 32 30 30 30 35 39 32 27 30 32 33 35 30 26 24 18 17 23 22 18 19 20 17 10 7 10 12 13 15 14 13 13 13 13 12 12 13 14 15 17 18 19 20 19 19 19 20 19 18 17 17 17 17 17 16 16 16 15 14 14 15 16 17 18 19 20
32 31 32 33 33 33 37 41 46 49 50 50 49 50 52 52 46 40 35 32 28 31 35 31 31 34 31 34 39 34 32 35 30 24 22 20 22 24 22 21 21 18 15 10 8 11 12 13 14 13 12 12 12 11 10 10 10 11 12 13 14 16 16 17 19 20 21 21 20 20 19 19 18 17 17 16 16 15 14 14 15 17 18 19 20 21
32 29 31 34 33 33 37 40 46 51 50 48 48 49 51 52 48 42 39 36 34 34 35 32 32 31 30 34 38 35 35 35 31 26 22 21 24 25 25 25 22 19 17 14 13 13 14 15 14 12 11 11 12 12 11 10 10 10 10 11 12 13 14 16 19 21 22 22 22 21 21 20 19 18 17 17 16 15 14 15 16 17 19 19 20 20
33 31 28 33 35 35 38 40 44 50 52 50 47 45 50 57 53 45 43 41 38 39 36 30 31 33 33 34 34 33 35 35 32 31 27 24 24 24 26 27 25 22 20 17 17 16 14 14 13 11 12 12 13 13 12 12 11 10 9 10 11 12 13 16 18 19 20 21 22 22 21 20 18 18 17 17 16 16 15 16 17 18 19 20 21 21
34 35 31 30 34 37 40 40 42 47 51 53 50 43 43 53 54 48 48 47 39 37 37 33 32 34 33 32 33 32 29 31 33 33 31 29 23 19 23 26 25 24 21 19 20 18 15 13 12 12 13 14 15 14 14 13 12 11 10 10 11 12 14 14 15 17 18 19 20 20 20 18 17 17 17 16 16 16 17 17 18 19 21 22 22 22
33 37 35 27 32 41 40 37 39 43 48 52 56 52 43 43 48 49 51 49 43 39 37 35 35 34 29 26 29 31 26 26 30 30 29 26 21 20 24 27 25 24 23 21 20 20 19 17 14 14 15 17 17 16 15 14 14 13 11 10 11 13 14 14 14 15 16 17 17 17 17 17 16 17 16 16 17 17 18 19 19 21 23 23 23 23
34 37 37 28 28 41 40 34 35 39 43 47 54 58 53 43 40 46 49 46 45 46 41 37 34 31 26 23 26 33 31 25 23 26 27 25 25 27 22 22 24 25 24 22 21 21 22 21 19 18 18 19 19 17 16 16 15 15 12 11 11 12 14 15 15 15 15 15 15 15 16 16 16 16 16 16 17 18 19 20 20 22 23 23 24 24
35 36 39 34 30 35 38 36 36 37 38 41 45 51 57 53 43 44 49 49 46 43 41 41 38 32 25 21 23 31 34 27 24 28 30 30 29 25 18 19 25 24 25 24 23 23 24 24 24 21 19 20 20 18 18 17 17 16 14 12 11 11 13 15 14 15 15 14 15 15 15 15 16 17 17 17 17 19 21 22 21 22 23 23 24 25
38 38 39 39 34 31 32 35 36 36 37 40 43 46 53 57 53 51 52 50 46 43 41 41 43 41 33 25 24 26 28 26 28 32 32 32 32 25 20 26 28 22 25 25 23 24 24 24 24 20 17 19 21 20 19 19 19 18 17 13 11 11 13 14 13 14 14 14 15 15 15 15 16 17 17 18 19 20 22 22 20 20 22 24 25 26
40 41 39 38 36 34 33 37 38 39 40 43 47 50 51 51 53 58 56 49 49 52 47 42 44 44 37 32 28 25 28 29 29 32 34 35 36 31 30 35 29 23 27 26 22 23 24 23 22 17 14 18 23 22 21 21 21 20 19 15 11 12 13 13 13 14 14 15 15 15 15 16 17 18 18 19 20 21 22 21 18 18 22 25 26 26
38 41 41 40 40 40 39 40 41 40 39 41 45 49 49 46 49 58 60 55 57 58 53 50 47 40 34 34 31 29 33 35 29 27 30 35 37 34 36 40 33 27 28 25 23 25 25 23 22 19 17 19 24 23 21 22 22 21 20 16 13 13 13 14 15 15 16 16 16 16 16 17 17 17 18 18 18 19 20 20 17 17 22 26 28 28
41 41 44 44 43 42 38 35 38 38 33 35 41 43 44 44 44 49 54 58 61 59 58 60 56 46 36 31 30 33 37 37 31 29 29 30 33 35 40 43 37 33 30 26 25 26 25 24 23 22 21 22 24 24 21 22 22 22 21 18 15 14 14 15 17 17 17 17 16 15 15 15 15 16 16 16 17 18 19 19 19 20 23 27 30 31
46 44 46 46 43 40 35 32 35 35 30 30 37 40 41 42 42 42 46 53 56 55 58 62 60 58 51 38 29 33 39 38 34 34 33 31 33 39 42 39 37 37 34 29 28 26 26 26 25 24 24 24 25 24 22 22 22 22 21 20 17 15 15 17 18 17 18 17 15 14 14 15 16 16 17 17 18 19 20 20 21 23 26 28 31 32
47 46 45 42 39 38 36 35 35 32 29 30 34 36 37 39 42 44 45 48 50 51 55 56 54 58 61 54 41 35 37 40 38 35 35 34 36 39 37 33 34 37 36 33 30 29 28 28 27 27 26 26 26 24 23 23 23 23 23 21 19 16 16 17 17 17 17 16 15 15 15 16 16 16 17 17 18 19 21 21 22 25 27 29 32 34
46 46 44 40 38 38 37 37 37 34 30 30 32 31 32 35 39 43 45 46 48 51 54 54 52 52 55 58 55 47 39 34 34 36 38 39 40 38 33 32 34 36 38 37 34 32 31 30 29 29 27 28 28 26 24 23 23 23 24 22 19 17 16 15 15 15 16 16 16 16 16 16 16 16 17 18 19 20 21 22 24 26 29 31 33 35
47 46 44 41 41 40 37 35 37 39 36 32 31 30 31 32 34 37 41 43 45 49 53 54 55 55 51 52 58 59 51 40 33 35 37 40 43 41 37 38 38 37 39 40 37 35 34 32 31 30 28 29 29 27 26 24 24 24 24 22 19 18 17 15 14 15 17 17 17 16 16 17 17 18 19 20 22 23 24 25 27 29 31 33 35 38
48 49 46 42 42 42 37 35 37 38 38 38 38 36 34 33 31 32 37 41 44 48 52 54 56 60 58 54 57 63 62 56 51 46 42 40 42 43 44 44 41 38 37 38 39 39 36 33 32 31 29 29 29 28 27 25 25 25 23 20 18 18 18 16 16 18 19 19 18 17 18 18 19 19 21 23 24 26 27 28 29 32 34 36 38 41
48 49 47 44 44 42 39 37 35 34 38 43 42 39 38 36 33 31 34 38 41 43 47 52 56 56 56 57 60 63 63 62 61 58 55 50 45 44 45 43 39 36 37 37 40 41 38 33 32 31 30 30 29 28 28 26 25 24 21 19 18 19 18 18 19 20 21 19 18 18 20 20 21 22 24 26 27 29 30 30 31 34 36 39 41 44
48 48 46 44 44 42 39 36 32 33 39 40 35 34 38 40 38 36 36 36 38 39 39 43 46 46 47 52 57 60 61 61 59 57 57 58 56 51 47 43 38 37 40 41 41 40 37 32 31 32 31 30 30 30 30 28 26 24 22 20 19 19 18 19 20 22 22 21 20 21 23 23 24 25 26 28 30 31 33 33 34 36 39 42 44 46
48 51 46 42 43 42 39 37 36 37 37 34 31 30 31 33 36 40 40 37 38 40 38 36 37 38 41 46 49 51 55 58 58 55 54 56 58 58 53 45 39 39 42 43 41 37 32 29 30 31 31 31 31 32 31 30 28 26 24 21 21 20 19 20 22 24 25 25 24 25 26 27 28 28 30 31 33 34 36 36 37 39 42 44 46 48
48 51 46 42 44 44 42 41 41 39 34 32 33 31 27 29 35 40 41 38 38 39 38 38 38 36 36 39 41 43 48 52 53 53 52 51 52 56 56 49 41 40 43 44 41 34 28 26 29 31 32 32 33 33 33 32 30 28 25 24 23 22 22 23 24 26 29 29 29 28 28 29 30 31 33 35 36 37 38 39 40 42 43 46 49 49
49 48 46 45 45 45 43 43 41 38 37 36 34 34 35 36 37 38 38 36 36 38 39 39 38 36 34 33 34 39 44 47 46 47 49 49 48 51 55 53 46 43 44 45 41 32 26 28 32 33 33 34 34 35 35 33 32 30 28 27 26 25 25 26 27 29 31 32 33 31 30 31 32 33 35 37 39 40 41 43 43 44 45 48 51 49
53 49 47 46 46 45 43 44 42 39 40 40 38 39 40 37 35 35 36 33 31 34 39 38 36 36 37 37 37 40 43 43 41 42 47 49 47 48 51 51 48 47 46 44 39 33 30 31 34 34 34 34 36 36 35 35 34 32 30 30 28 28 29 29 31 32 33 35 36 35 34 33 34 35 37 40 41 43 46 47 46 46 48 50 52 48
54 51 48 47 47 45 44 45 43 40 41 41 40 40 39 38 37 36 35 33 30 32 38 40 36 35 38 40 41 42 43 42 39 40 44 46 44 44 46 45 45 47 45 42 38 36 35 35 36 35 35 35 36 37 37 38 36 34 33 33 32 31 32 33 34 35 36 37 39 39 37 35 36 38 39 41 43 46 49 49 47 48 51 53 51 46
55 54 53 51 47 43 43 44 43 42 43 41 39 40 41 41 40 37 35 34 31 32 37 39 37 36 35 35 37 39 40 41 38 37 40 41 40 43 44 42 41 42 43 42 41 39 39 40 39 37 36 36 37 38 39 39 37 36 37 37 36 36 36 37 38 38 39 40 42 42 41 39 39 40 41 43 46 48 49 48 47 50 53 53 49 44
57 56 56 55 51 48 45 44 43 43 43 40 38 39 40 39 36 34 34 33 31 30 33 34 35 35 33 31 34 36 35 35 36 37 38 38 39 42 42 39 40 42 44 45 45 43 43 42 40 39 39 39 39 39 40 40 40 40 40 40 40 40 40 40 41 41 42 43 44 44 43 42 42 43 44 45 48 48 48 49 50 52 54 52 47 42
58 59 57 54 53 53 51 47 44 43 41 38 37 38 37 36 35 33 30 30 30 30 31 32 32 33 32 31 34 34 30 28 31 36 39 40 39 38 36 36 39 43 45 47 47 47 46 45 43 42 41 40 40 41 42 42 43 43 42 43 44 44 43 44 45 45 46 46 46 46 44 43 44 46 47 48 48 48 49 51 52 53 52 48 44 40
57 59 57 52 51 53 52 50 47 44 42 40 40 40 37 34 34 33 28 27 30 30 29 29 29 30 31 31 31 30 29 30 32 35 37 40 39 34 32 33 37 41 43 45 47 49 49 48 46 44 43 43 43 42 43 44 46 46 45 45 45 46 47 48 49 49 49 49 49 46 44 44 46 48 49 49 49 49 50 52 53 52 49 45 42 39
53 54 55 53 52 52 51 51 49 47 46 45 43 41 37 32 32 32 31 31 32 31 27 26 28 29 30 31 30 30 31 33 32 29 30 34 36 34 32 33 35 37 40 43 47 50 51 49 47 45 45 45 44 43 43 44 46 47 47 48 48 49 51 52 53 54 54 53 52 47 43 44 47 49 49 49 49 50 52 54 53 50 47 44 42 41
52 52 52 53 52 51 51 52 51 50 50 47 42 38 36 33 32 34 36 36 35 33 30 27 27 28 30 33 33 33 33 32 30 27 27 30 33 34 34 33 33 34 38 41 45 48 49 48 47 46 44 43 42 42 43 44 45 47 49 50 51 52 54 55 57 57 56 56 53 46 42 44 47 48 48 49 50 51 53 54 52 48 46 44 42 42
53 52 50 50 51 51 52 53 52 51 50 46 41 38 36 34 33 34 37 39 38 36 33 30 28 29 33 36 35 34 33 31 30 30 29 29 31 34 36 35 34 35 36 39 42 45 47 48 47 45 44 43 43 43 43 44 46 47 49 51 52 54 56 58 59 57 56 56 53 47 44 45 46 47 47 49 50 51 52 52 50 48 45 44 43 43
53 52 49 50 51 51 51 52 52 52 50 45 41 38 36 36 36 35 36 37 37 36 34 32 31 31 34 36 36 36 34 32 31 31 29 28 32 36 38 38 37 36 37 39 41 44 46 47 47 47 46 45 45 45 44 45 46 48 50 52 53 55 57 58 58 57 56 55 52 47 45 45 46 47 48 49 50 51 51 51 50 47 46 45 44 43
46 48 48 50 53 53 51 50 49 49 48 46 43 40 38 37 36 34 33 35 37 37 35 33 32 32 33 35 36 36 34 33 32 32 30 30 33 37 39 39 38 37 38 39 40 43 45 46 47 48 47 47 47 46 46 46 48 50 52 53 53 54 56 58 59 59 58 56 52 47 46 46 47 48 48 49 50 50 50 50 49 47 46 46 44 42
42 43 46 48 50 51 50 47 45 44 45 45 43 41 38 36 34 34 35 37 38 38 36 34 33 33 33 34 35 35 34 34 33 32 30 30 32 35 38 38 37 37 37 38 39 41 43 44 46 48 48 47 47 47 47 48 49 51 52 53 53 54 55 57 58 58 57 55 52 49 47 47 48 48 49 49 50 50 49 49 49 48 47 46 44 42
43 45 47 46 45 46 47 47 46 45 44 43 41 40 39 37 35 36 38 38 38 38 37 36 34 33 32 33 34 34 34 34 34 33 33 33 33 34 35 36 37 38 39 40 41 42 43 44 46 47 48 48 48 48 48 49 50 51 52 53 53 54 56 57 57 57 56 53 51 49 48 48 49 50 50 50 50 50 49 50 50 49 47 46 45 44
40 45 48 47 43 40 39 39 42 42 40 39 39 39 40 39 38 37 37 37 37 38 37 35 34 32 32 34 36 35 34 37 37 36 36 37 36 35 36 37 38 40 41 43 44 45 45 46 47 47 47 48 49 49 49 48 49 50 51 52 53 54 57 58 57 57 56 53 50 49 48 49 50 50 49 49 50 50 50 51 50 49 47 46 46 45
Wind_Direction
231 231 232 231 227 223 218 221 222 214 206 205 217 235 234 223 232 235 243 250 227 216 223 218 217 218 218 221 217 220 222 217 216 212 207 201 193 186 178 176 178 183 187 190 193 195 198 198 201 203 203 207 209 211 216 219 223 225 224 224 226 227 227 227 229 234 243 251 259 263 262 260 258 261 265 269 276 281 292 301 304 309 312 315 317 317
231 232 235 234 230 227 222 220 222 219 208 204 213 232 235 222 224 229 239 254 239 216 221 220 217 219 217 216 217 220 220 217 216 212 208 204 198 193 187 179 176 181 186 192 198 201 206 208 208 210 210 210 213 214 217 220 222 225 227 226 228 229 231 231 233 237 244 252 257 257 254 251 246 243 247 250 253 261 270 279 288 295 297 299 303 305
232 233 235 235 230 225 223 221 222 222 212 206 211 223 231 225 219 220 232 252 245 220 219 222 217 219 218 215 218 220 219 218 216 211 209 206 201 198 194 187 180 181 183 188 198 204 210 218 218 217 218 218 219 219 218 220 221 222 224 226 227 228 231 233 233 238 243 249 253 252 248 244 240 238 242 247 252 259 268 275 281 285 287 290 292 294
235 235 236 236 232 223 222 222 220 223 218 211 214 218 221 221 223 223 223 237 242 227 222 224 219 219 219 217 219 221 222 220 216 214 212 209 206 203 199 196 192 189 189 189 194 202 207 217 225 226 225 227 228 227 225 224 224 225 226 227 228 229 230 231 232 235 240 243 246 246 244 241 241 243 246 253 258 263 270 276 280 283 286 289 290 291
236 236 235 237 235 227 222 222 219 221 221 215 214 216 216 216 218 222 231 243 249 238 226 224 223 221 219 219 219 222 224 222 220 219 216 213 211 208 204 203 203 198 196 197 198 201 207 212 220 225 229 236 237 235 233 231 230 230 230 229 229 228 227 227 228 231 233 235 237 238 240 242 244 248 253 258 262 268 273 278 283 286 289 292 294 296
236 234 234 235 235 231 226 223 220 219 221 220 216 213 211 216 218 217 234 251 249 236 227 224 225 224 223 222 220 222 224 223 224 224 221 219 215 211 210 210 211 209 205 205 207 209 212 216 220 223 228 235 239 240 239 237 236 235 233 230 228 226 225 224 224 226 228 229 231 234 238 243 247 252 258 262 268 273 278 282 287 290 294 296 298 301
235 233 231 232 232 233 229 225 223 218 218 221 221 219 212 213 219 216 230 249 250 239 229 226 226 225 225 225 222 221 223 223 225 226 227 228 224 217 214 214 215 219 217 214 214 217 220 223 224 225 229 233 237 241 243 242 240 238 236 233 231 229 226 224 224 224 226 228 230 234 238 244 250 256 263 269 274 279 283 288 292 294 297 300 302 304
237 233 232 231 231 234 231 227 226 220 218 217 217 223 223 218 216 213 226 242 248 244 235 230 229 228 227 225 223 225 225 225 226 228 229 232 233 226 220 219 219 222 225 225 223 223 226 229 230 230 231 234 237 241 245 246 244 240 238 237 236 235 232 230 229 228 229 231 233 237 242 248 255 262 268 273 277 283 288 292 294 296 298 300 303 304
240 235 236 234 232 235 234 230 230 225 221 217 212 217 227 227 219 216 228 237 243 245 239 232 230 230 231 226 223 225 226 228 230 230 231 231 234 231 224 220 221 225 227 230 231 231 231 231 232 233 232 233 235 238 242 245 244 243 242 241 239 239 238 237 236 237 238 240 242 244 249 255 262 267 271 276 280 285 290 293 294 295 297 300 300 302
240 233 235 235 231 234 236 231 230 229 225 219 214 213 220 235 232 225 229 233 240 245 239 231 232 234 232 226 224 226 225 228 230 230 233 233 236 239 233 221 218 223 228 233 236 236 236 235 234 234 234 234 235 235 239 244 247 248 245 244 243 241 242 243 243 244 245 247 250 252 256 262 267 271 274 276 280 283 288 290 290 291 294 296 297 300
243 236 233 234 232 233 235 230 228 230 228 221 218 213 210 231 237 232 231 228 233 241 238 234 239 244 238 227 226 230 230 230 230 230 232 234 239 242 238 231 224 221 223 231 240 242 241 240 239 238 237 236 236 236 240 245 248 249 248 247 248 248 248 249 249 249 249 251 254 258 262 267 271 273 275 275 276 280 284 283 283 287 292 295 299 303
243 241 237 235 233 232 232 228 227 228 227 224 219 211 210 224 229 229 228 227 230 235 235 231 234 244 244 233 228 233 235 232 231 233 235 237 240 235 232 237 240 235 227 230 246 256 255 251 245 240 237 236 237 238 241 244 246 246 248 249 252 253 252 251 251 251 251 253 256 259 263 268 271 272 273 273 274 276 276 276 280 287 294 299 303 305
243 246 244 238 234 232 230 227 226 226 224 226 221 211 213 224 226 225 222 224 231 233 230 226 226 238 244 236 227 227 232 237 234 230 233 238 239 235 235 239 244 243 239 244 259 265 266 263 254 244 241 239 240 242 243 245 246 247 248 250 252 253 251 251 251 251 252 253 254 259 262 266 268 270 272 272 271 270 270 275 283 292 299 304 306 307
243 245 246 241 235 233 231 227 226 227 224 225 222 212 212 219 219 221 221 222 231 235 232 225 223 234 240 238 229 222 225 239 240 231 231 235 235 241 242 236 238 242 239 241 261 270 271 269 264 258 255 251 249 249 248 248 248 248 247 248 249 250 251 252 253 252 252 253 255 259 263 264 266 269 271 269 266 265 270 280 289 296 302 307 308 310
243 245 247 247 240 234 232 229 227 230 228 227 223 215 216 221 218 217 223 225 228 234 239 234 230 233 235 237 238 232 224 225 233 232 228 228 232 240 240 233 236 245 244 240 256 271 270 264 264 269 272 269 262 257 255 253 250 247 245 244 245 247 250 251 252 252 251 252 256 261 262 261 264 268 268 266 263 265 274 285 293 298 303 308 311 313
247 249 249 248 245 237 233 232 229 227 228 230 226 219 222 228 224 219 227 234 233 235 237 237 239 240 237 233 236 238 231 226 231 234 223 222 235 238 241 242 239 241 245 251 258 260 262 261 265 273 280 278 271 265 262 258 251 246 242 242 244 245 247 250 251 252 252 253 256 260 260 260 264 266 266 262 262 266 277 286 291 297 302 306 310 313
248 250 249 245 244 239 231 230 230 226 226 231 229 223 227 233 229 224 228 232 233 236 237 235 240 245 245 240 235 235 233 227 228 232 224 225 234 235 241 248 244 239 238 249 260 253 251 256 262 271 279 282 281 276 271 266 259 254 250 248 249 248 249 250 251 251 252 253 255 258 258 259 262 263 262 261 262 269 279 286 291 295 298 303 307 311
245 245 247 247 244 242 236 227 227 228 225 227 230 227 227 230 228 226 230 231 232 235 237 235 236 237 241 245 243 239 236 231 228 232 229 222 227 240 250 247 241 237 234 247 262 254 245 247 255 267 277 283 285 282 278 277 273 271 268 261 255 252 250 249 249 250 251 253 255 255 255 255 258 260 259 259 262 270 279 285 289 293 297 302 307 311
240 238 240 247 246 243 241 231 225 228 225 222 227 230 229 229 226 223 226 228 230 234 236 235 235 235 234 240 246 243 239 237 234 232 230 224 227 245 254 244 235 232 229 241 258 257 247 243 246 258 268 273 279 283 283 282 284 286 281 270 261 255 251 250 251 252 252 252 252 251 251 252 255 256 256 258 263 271 278 282 287 292 297 302 307 314
238 240 233 239 246 243 243 238 228 227 227 222 220 224 229 231 228 225 225 224 223 230 235 235 234 235 233 236 248 253 244 236 230 226 233 237 232 241 255 248 236 228 222 228 245 253 249 242 239 246 257 264 271 280 285 284 289 292 285 276 268 262 258 256 256 253 251 250 249 249 249 250 250 252 255 260 267 274 278 281 288 293 298 302 307 315
231 241 237 229 242 246 243 240 233 228 230 227 220 217 221 227 226 225 228 229 229 230 232 235 237 237 232 228 243 255 247 229 223 225 236 240 224 221 248 257 244 228 220 219 229 242 248 247 245 245 251 259 265 276 286 289 291 293 291 282 270 264 263 262 260 257 253 251 251 248 246 246 248 253 259 265 272 277 281 285 292 296 300 305 310 317
225 235 239 223 231 248 246 239 238 234 232 234 230 224 220 221 223 225 227 229 233 235 230 229 235 239 234 226 233 245 244 230 216 216 220 219 210 208 225 253 248 225 214 212 217 231 244 249 251 251 249 254 263 274 285 291 292 292 292 283 271 267 264 261 261 258 255 253 249 245 245 248 253 259 263 269 274 279 283 288 293 297 302 309 315 320
225 227 237 229 222 242 250 245 241 238 232 231 234 232 226 221 220 223 225 223 227 234 232 229 233 234 227 222 230 243 249 239 218 214 214 210 212 210 210 240 246 223 204 207 217 228 239 245 249 249 246 250 261 271 280 289 293 294 293 282 272 270 262 256 256 253 251 250 247 247 251 255 260 263 266 271 275 279 283 286 292 299 305 312 319 323
230 224 231 235 227 227 243 249 244 239 232 225 227 232 230 225 223 226 227 224 225 230 229 229 235 234 224 216 224 240 252 242 220 218 219 215 217 218 216 230 235 215 201 206 217 228 235 242 246 248 250 254 262 270 277 283 287 292 293 285 273 269 264 258 256 254 252 251 251 254 258 259 262 265 269 272 274 278 281 285 294 304 311 316 322 326
235 231 226 231 231 222 226 238 241 238 235 228 226 231 233 229 225 227 228 225 227 230 228 227 234 238 233 225 223 233 250 248 232 224 222 218 217 215 219 230 228 208 203 207 215 228 236 241 245 250 256 256 259 268 275 276 281 288 290 288 277 271 271 268 263 259 257 256 257 258 259 260 263 267 270 273 276 279 282 287 300 312 317 321 324 327
232 234 229 227 230 230 230 237 241 240 238 236 231 229 230 228 224 226 228 227 229 232 230 229 232 236 238 234 228 228 239 245 238 223 219 223 225 222 227 237 232 211 204 207 216 229 237 241 244 250 254 251 255 265 271 272 277 282 286 289 281 271 272 271 264 261 258 257 257 257 259 262 266 269 273 278 281 283 286 293 303 311 315 319 322 325
227 230 233 230 229 233 237 239 240 240 238 242 241 232 225 225 226 228 229 229 231 234 235 234 231 229 229 232 232 230 236 240 229 212 210 219 227 230 233 236 232 218 208 207 216 228 236 240 242 247 249 248 253 261 264 265 271 277 282 287 281 271 269 266 262 258 256 256 255 256 260 264 269 274 279 284 287 288 290 295 302 306 309 315 319 320
231 231 235 236 233 232 231 229 234 237 232 235 244 240 230 224 224 226 229 230 231 234 238 240 238 235 230 225 225 231 240 243 230 217 216 216 220 229 232 232 232 229 220 210 212 222 230 235 238 242 244 245 250 256 257 260 267 273 278 281 277 271 265 260 258 255 253 253 253 255 262 268 275 281 284 287 289 290 293 297 302 305 307 312 316 316
233 234 236 241 243 238 230 226 229 229 224 227 235 240 238 231 225 224 228 231 231 231 236 239 241 243 240 232 222 219 231 243 242 231 224 220 223 231 234 232 231 230 223 212 209 216 223 228 233 236 239 243 249 254 255 258 265 270 274 277 274 268 261 256 253 250 248 249 251 257 266 274 280 286 289 292 293 295 298 302 306 307 308 311 312 312
232 235 235 235 239 240 235 229 228 225 223 229 233 235 238 237 233 231 230 231 232 233 235 236 237 242 245 242 234 222 219 233 248 245 234 226 226 227 229 232 230 225 221 214 210 213 219 224 229 232 235 239 246 251 254 258 263 267 272 274 271 265 259 254 249 244 244 247 253 260 270 279 288 294 297 298 299 300 303 306 308 307 307 309 310 309
230 232 232 230 231 236 236 231 230 229 226 228 232 233 233 235 237 238 237 234 233 234 236 237 238 238 241 244 243 236 226 219 229 243 240 229 225 223 224 228 228 224 222 219 215 215 218 223 229 232 235 240 245 250 253 256 260 264 268 268 265 260 254 246 240 240 244 250 258 267 276 284 292 298 301 303 303 303 305 307 308 308 308 310 309 308
230 230 229 228 229 233 235 232 230 232 231 228 228 228 228 231 232 235 237 236 235 238 240 239 239 241 240 240 243 244 240 230 228 236 240 230 220 220 225 229 229 227 226 224 222 220 218 221 228 234 239 243 247 250 252 254 257 260 262 260 256 252 245 238 238 245 251 257 265 274 281 286 293 298 302 305 305 305 306 307 309 309 309 310 309 309
229 232 229 228 229 230 233 234 231 233 235 233 233 233 228 226 229 233 237 240 240 242 245 243 242 244 245 243 244 248 249 245 239 238 242 243 235 226 227 232 233 232 229 227 227 224 218 219 226 233 239 244 247 248 250 251 251 252 254 252 248 247 245 242 248 255 260 264 270 278 282 287 293 297 300 303 304 304 305 305 306 306 307 309 310 311
227 230 228 226 229 229 231 234 232 232 235 236 240 242 232 224 224 228 235 242 244 243 246 249 249 248 247 246 248 250 250 249 246 241 239 244 246 242 237 234 234 235 234 232 230 224 218 218 226 233 238 241 242 243 244 245 245 245 248 250 250 253 256 257 260 264 267 269 273 278 282 287 291 295 298 300 302 304 304 303 302 303 305 309 311 311
223 226 225 224 227 228 229 231 230 230 233 236 239 242 239 233 228 224 227 235 242 242 242 246 250 252 251 249 250 252 252 250 248 245 240 238 242 245 243 236 232 235 238 236 231 222 216 219 227 233 237 238 238 240 241 242 241 243 248 254 258 262 266 267 269 272 274 275 277 282 286 288 290 293 296 298 300 302 303 301 300 300 304 309 311 310
226 226 225 223 225 226 227 228 230 230 231 235 240 238 235 233 229 224 223 226 231 237 239 239 242 247 253 255 252 250 251 250 248 247 244 240 239 242 243 239 232 232 236 236 229 217 211 219 227 231 234 235 236 238 240 241 243 244 249 257 262 265 268 271 274 276 278 280 283 287 290 290 291 293 295 296 298 299 301 301 300 300 303 308 310 309
226 227 225 224 223 224 226 229 231 232 230 230 234 232 227 229 230 227 227 227 226 228 232 236 239 238 242 249 249 245 248 253 251 246 244 242 239 240 242 241 236 233 236 236 227 212 207 217 225 229 232 233 235 237 240 244 246 248 252 259 263 266 269 272 273 275 278 281 285 288 290 290 290 291 293 295 296 297 299 300 300 302 303 306 308 307
222 223 224 225 225 225 227 229 229 230 228 225 226 226 226 230 232 231 233 237 235 228 226 230 236 237 236 237 240 244 250 255 251 244 241 241 240 239 242 242 238 234 233 231 222 211 209 216 224 229 230 232 236 238 242 246 248 250 255 259 263 266 269 272 273 273 275 279 282 285 288 288 288 289 291 294 295 296 298 299 300 302 303 305 306 304
221 221 222 223 223 223 226 227 228 230 231 229 229 231 232 235 238 239 240 243 241 234 230 230 230 233 236 237 239 244 251 254 248 240 239 241 241 241 242 241 236 233 230 224 215 210 211 216 222 225 225 228 235 239 243 247 250 253 256 257 261 265 268 270 271 272 273 275 277 281 284 285 286 287 289 291 293 295 298 299 300 301 302 303 303 300
222 222 222 220 219 221 224 227 228 232 235 234 234 237 239 239 243 248 248 245 241 237 237 237 232 229 232 238 241 243 247 250 246 240 239 242 242 241 240 235 229 227 225 219 212 209 212 217 221 224 224 228 234 240 244 248 252 254 255 256 259 263 265 267 269 270 271 272 273 276 280 282 283 283 285 288 291 295 298 299 299 299 300 302 300 296
222 223 224 223 222 224 227 228 230 233 235 234 234 238 240 240 244 249 250 248 246 244 242 242 239 236 237 239 242 244 246 248 248 243 238 236 235 236 235 228 221 220 220 218 214 211 212 217 221 225 227 230 233 238 243 247 251 252 253 254 257 259 262 265 267 268 269 269 270 273 276 280 282 283 285 288 291 294 297 297 297 298 299 299 297 293
222 223 223 224 225 226 228 231 232 233 235 234 234 239 241 241 243 246 248 248 248 250 250 247 242 242 244 244 244 247 247 246 246 242 235 230 230 232 230 223 217 216 218 219 217 213 213 216 221 226 230 232 233 236 239 243 248 251 251 253 255 258 261 263 265 265 266 267 269 270 274 279 282 284 286 289 291 294 295 295 295 297 297 296 293 291
223 225 225 224 224 226 228 230 231 233 236 236 236 239 238 238 241 243 246 248 248 248 252 252 248 245 246 247 250 253 251 245 242 239 235 232 229 225 222 218 215 214 216 218 218 216 215 218 222 227 231 233 234 236 239 242 246 249 251 254 256 258 261 263 263 264 265 266 266 268 272 276 280 283 285 287 290 293 295 295 295 295 294 292 290 291
219 225 227 227 228 229 230 231 231 233 236 237 239 241 241 242 246 245 242 243 245 245 247 249 248 247 247 247 248 250 251 250 247 242 238 236 231 222 216 214 213 213 215 217 219 219 218 220 223 227 230 232 235 239 242 244 247 249 252 254 257 259 261 263 264 264 264 263 263 266 271 276 280 283 284 286 289 292 292 293 293 291 290 288 289 291
214 219 223 225 228 229 229 231 232 234 236 238 238 240 242 243 244 241 238 237 239 241 242 241 242 244 245 243 241 242 247 252 252 244 236 233 230 222 213 210 212 214 216 219 221 221 220 221 223 226 230 234 237 241 243 246 248 250 251 254 256 258 261 262 263 263 263 264 266 270 274 278 280 282 283 285 289 290 291 292 291 288 287 287 289 292
213 215 217 219 221 223 225 228 231 233 236 237 237 237 239 239 236 236 236 236 236 238 236 234 236 241 241 238 236 237 242 247 249 243 233 226 223 218 211 208 212 214 217 220 222 222 221 222 224 227 230 234 237 241 243 246 248 250 252 255 257 259 260 260 260 261 262 265 269 273 276 279 279 280 282 285 287 289 290 291 289 287 286 288 290 292
215 215 216 218 221 223 225 228 230 232 235 237 237 239 241 241 239 238 237 236 236 236 232 228 232 238 238 235 234 235 238 242 242 238 229 220 218 216 211 209 211 214 217 219 221 222 222 222 225 228 231 234 238 241 244 246 248 251 253 255 256 257 259 260 261 261 263 266 269 272 275 277 278 279 282 285 286 288 289 289 288 287 287 289 290 292
211 213 215 220 223 224 226 229 231 233 236 238 239 241 243 246 247 245 242 238 236 236 233 229 231 237 237 235 234 235 238 240 237 229 220 215 214 214 212 212 212 215 217 219 222 223 223 224 227 230 233 237 240 243 246 248 250 251 251 252 254 256 258 261 264 265 268 270 272 273 274 275 276 279 282 284 286 287 288 288 288 288 288 289 290 291
210 213 216 220 225 226 228 230 231 232 234 236 238 241 244 248 250 249 245 240 237 237 238 235 232 237 239 237 234 236 238 240 235 224 214 212 211 211 212 214 215 216 218 220 223 225 225 227 228 230 234 237 240 243 246 249 250 251 251 253 255 257 261 265 269 272 273 274 273 272 272 273 276 280 282 284 285 286 287 288 288 288 288 288 288 289
216 217 217 220 224 226 229 231 231 231 233 235 239 243 246 247 248 246 244 242 239 239 240 236 232 233 236 235 234 235 234 233 230 223 215 213 211 209 210 215 218 219 220 220 222 224 226 227 229 231 234 236 239 241 244 247 248 250 251 254 256 260 264 268 271 273 273 273 271 270 271 274 277 280 282 283 284 285 286 287 288 288 287 287 288 290
218 218 218 220 221 221 223 226 227 230 233 235 238 242 244 246 247 245 244 244 243 241 238 233 229 229 231 232 232 231 227 225 225 223 219 216 213 212 214 219 221 222 222 223 224 225 226 227 228 231 233 236 239 242 244 246 248 250 252 255 258 262 265 268 270 270 270 270 269 269 272 275 278 279 280 280 282 284 286 287 287 287 286 287 289 291
Height
5882 5882 5882 5884 5888 5890 5893 5895 5898 5900 5902 5905 5908 5909 5908 5910 5912 5914 5912 5907 5906 5907 5907 5908 5908 5909 5909 5909 5909 5910 5910 5911 5911 5911 5911 5912 5911 5911 5911 5911 5912 5912 5913 5913 5914 5915 5915 5916 5917 5918 5918 5919 5920 5920 5921 5922 5922 5923 5924 5925 5925 5926 5926 5926 5927 5927 5927 5928 5928 5928 5928 5929 5929 5929 5929 5929 5930 5930 5930 5930 5930 5930 5930 5929 5929 5928
5878 5879 5881 5884 5887 5890 5892 5894 5896 5898 5900 5903 5907 5909 5908 5910 5913 5915 5914 5908 5904 5906 5906 5906 5907 5908 5908 5908 5908 5909 5910 5910 5910 5911 5911 5911 5911 5911 5911 5911 5911 5912 5913 5913 5914 5915 5915 5916 5917 5917 5918 5918 5919 5920 5920 5921 5922 5922 5923 5924 5924 5925 5925 5926 5926 5926 5927 5927 5927 5928 5928 5928 5928 5929 5929 5929 5929 5929 5929 5930 5929 5929 5929 5929 5928 5928
5874 5877 5880 5883 5885 5887 5890 5892 5893 5895 5898 5900 5904 5907 5907 5908 5911 5914 5914 5908 5903 5904 5905 5905 5906 5907 5907 5907 5907 5908 5909 5909 5910 5910 5910 5911 5911 5911 5911 5911 5911 5911 5912 5913 5913 5914 5915 5915 5916 5917 5917 5918 5918 5919 5920 5920 5921 5922 5922 5923 5923 5924 5924 5925 5925 5925 5926 5926 5927 5927 5928 5928 5928 5928 5929 5929 5929 5929 5929 5929 5929 5928 5928 5928 5928 5927
5873 5876 5880 5881 5882 5884 5886 5889 5891 5892 5894 5897 5900 5904 5905 5908 5910 5912 5911 5906 5902 5903 5904 5904 5904 5905 5905 5905 5906 5907 5908 5908 5909 5909 5909 5910 5910 5910 5910 5910 5911 5911 5911 5912 5913 5913 5914 5915 5915 5916 5917 5917 5918 5918 5919 5920 5920 5921 5922 5922 5923 5923 5923 5924 5924 5925 5925 5925 5926 5926 5927 5927 5927 5928 5928 5928 5929 5929 5928 5928 5928 5927 5927 5927 5926 5926
5871 5875 5877 5879 5880 5881 5883 5885 5887 5890 5891 5893 5897 5900 5903 5907 5909 5910 5908 5903 5901 5902 5901 5902 5902 5902 5903 5904 5905 5906 5906 5907 5908 5908 5908 5909 5909 5909 5910 5910 5910 5911 5911 5911 5912 5912 5913 5914 5914 5915 5916 5917 5917 5918 5918 5919 5920 5920 5921 5921 5922 5922 5923 5923 5923 5924 5924 5925 5925 5926 5926 5926 5927 5927 5927 5927 5928 5928 5927 5927 5927 5926 5926 5925 5925 5924
5868 5871 5873 5875 5876 5878 5880 5882 5884 5887 5889 5891 5893 5896 5901 5904 5906 5909 5907 5902 5899 5899 5899 5900 5899 5900 5901 5902 5903 5904 5905 5906 5906 5907 5907 5907 5907 5908 5908 5909 5910 5910 5910 5911 5911 5912 5912 5913 5913 5914 5915 5916 5916 5917 5917 5918 5919 5920 5920 5921 5921 5921 5921 5922 5922 5923 5923 5924 5924 5925 5925 5926 5926 5926 5926 5926 5926 5926 5926 5926 5925 5925 5924 5924 5923 5922
5863 5866 5869 5870 5872 5874 5876 5879 5881 5884 5887 5889 5891 5893 5897 5900 5902 5905 5907 5903 5898 5897 5898 5897 5897 5899 5900 5899 5901 5902 5903 5904 5904 5905 5905 5906 5906 5906 5906 5907 5908 5909 5910 5910 5910 5911 5912 5912 5913 5913 5914 5914 5915 5916 5916 5917 5918 5919 5919 5920 5920 5920 5921 5921 5921 5922 5922 5923 5923 5924 5924 5925 5925 5925 5925 5925 5925 5925 5924 5924 5923 5923 5922 5921 5921 5920
5860 5863 5864 5866 5869 5870 5872 5875 5879 5882 5883 5885 5890 5893 5893 5895 5897 5901 5904 5902 5898 5896 5896 5895 5896 5897 5896 5897 5899 5900 5901 5902 5902 5903 5903 5904 5905 5905 5904 5904 5906 5907 5908 5909 5909 5910 5910 5911 5912 5912 5912 5913 5913 5914 5915 5916 5917 5917 5918 5919 5919 5919 5920 5920 5920 5921 5921 5922 5922 5922 5923 5923 5924 5924 5924 5923 5923 5923 5922 5922 5921 5921 5920 5920 5919 5918
5857 5859 5859 5863 5867 5866 5869 5874 5877 5879 5880 5884 5888 5891 5892 5892 5893 5897 5900 5899 5897 5894 5892 5892 5894 5894 5893 5896 5897 5897 5898 5899 5900 5901 5901 5902 5903 5902 5902 5901 5903 5905 5906 5907 5908 5908 5909 5909 5910 5910 5911 5911 5912 5913 5914 5915 5915 5916 5917 5918 5918 5919 5919 5919 5919 5920 5920 5920 5921 5921 5922 5922 5922 5922 5922 5922 5921 5921 5921 5920 5919 5919 5919 5918 5917 5916
5851 5854 5855 5858 5862 5862 5865 5873 5875 5875 5877 5882 5885 5887 5890 5892 5891 5893 5895 5896 5896 5892 5889 5890 5891 5890 5891 5894 5895 5894 5895 5897 5898 5899 5898 5899 5900 5901 5900 5899 5899 5901 5903 5905 5906 5907 5907 5908 5908 5908 5909 5910 5910 5911 5912 5913 5914 5915 5916 5916 5917 5917 5917 5918 5918 5919 5919 5919 5919 5920 5920 5921 5921 5920 5920 5920 5920 5919 5919 5918 5918 5917 5917 5916 5916 5915
5846 5849 5850 5852 5857 5859 5863 5869 5870 5871 5874 5879 5881 5883 5888 5891 5891 5890 5891 5893 5893 5889 5888 5891 5891 5889 5889 5891 5892 5892 5894 5896 5896 5895 5896 5897 5898 5900 5899 5897 5898 5898 5900 5902 5904 5904 5905 5906 5906 5907 5907 5908 5909 5909 5910 5911 5912 5913 5914 5914 5915 5915 5916 5916 5917 5917 5917 5918 5918 5918 5918 5919 5919 5918 5918 5918 5918 5918 5917 5917 5916 5916 5915 5915 5914 5913
5842 5843 5845 5849 5853 5856 5859 5863 5865 5867 5870 5874 5876 5879 5884 5887 5887 5886 5887 5887 5885 5884 5887 5891 5892 5889 5887 5888 5890 5891 5893 5893 5892 5894 5895 5896 5897 5898 5897 5897 5898 5898 5897 5898 5901 5903 5903 5904 5904 5905 5905 5906 5906 5907 5908 5909 5910 5911 5911 5912 5913 5913 5914 5914 5915 5915 5915 5916 5916 5916 5917 5917 5917 5916 5916 5916 5916 5916 5915 5915 5914 5914 5914 5913 5912 5912
5838 5839 5841 5845 5849 5851 5854 5858 5860 5861 5865 5868 5870 5875 5879 5881 5881 5880 5881 5881 5880 5881 5885 5888 5891 5889 5884 5885 5888 5890 5890 5889 5890 5892 5893 5894 5895 5896 5896 5896 5897 5897 5895 5895 5898 5901 5901 5902 5903 5903 5904 5904 5905 5905 5906 5906 5907 5908 5909 5910 5911 5911 5912 5912 5913 5913 5913 5914 5914 5914 5914 5915 5914 5914 5914 5914 5914 5914 5913 5913 5913 5912 5912 5911 5911 5910
5834 5835 5837 5840 5843 5846 5848 5852 5853 5855 5860 5862 5865 5871 5873 5874 5875 5875 5877 5878 5878 5879 5882 5884 5886 5885 5882 5883 5885 5887 5888 5888 5888 5889 5891 5892 5894 5895 5894 5893 5893 5895 5894 5893 5896 5899 5900 5901 5902 5902 5903 5903 5904 5904 5904 5904 5905 5906 5906 5907 5908 5909 5909 5910 5910 5911 5911 5911 5912 5912 5912 5912 5912 5912 5912 5912 5912 5912 5911 5911 5911 5910 5910 5910 5909 5908
5830 5830 5833 5836 5838 5841 5844 5847 5850 5853 5857 5858 5862 5867 5867 5866 5869 5872 5874 5875 5876 5879 5881 5881 5879 5878 5879 5881 5883 5884 5886 5886 5885 5885 5889 5891 5894 5896 5892 5889 5890 5893 5893 5892 5894 5897 5898 5899 5900 5901 5902 5902 5902 5902 5902 5903 5903 5903 5904 5904 5905 5906 5907 5908 5908 5909 5909 5909 5910 5910 5910 5910 5910 5910 5910 5910 5910 5910 5910 5909 5909 5908 5908 5908 5907 5907
5826 5827 5830 5832 5833 5836 5840 5843 5848 5851 5851 5853 5859 5862 5860 5860 5866 5871 5873 5873 5875 5878 5878 5878 5875 5874 5877 5880 5879 5880 5882 5883 5882 5883 5886 5889 5893 5893 5888 5887 5889 5891 5892 5891 5893 5895 5896 5898 5898 5899 5900 5900 5900 5901 5901 5901 5901 5901 5901 5902 5903 5904 5904 5905 5906 5906 5907 5907 5908 5908 5908 5908 5908 5908 5908 5908 5908 5908 5908 5908 5907 5906 5906 5906 5905 5905
5823 5824 5826 5826 5828 5831 5834 5838 5842 5844 5847 5849 5852 5855 5856 5860 5865 5868 5869 5871 5874 5873 5873 5874 5875 5875 5877 5876 5875 5876 5878 5878 5879 5882 5884 5888 5891 5888 5884 5885 5888 5889 5890 5890 5891 5894 5895 5896 5897 5897 5898 5899 5899 5899 5899 5899 5899 5899 5899 5900 5900 5901 5902 5903 5903 5904 5904 5905 5906 5906 5906 5906 5906 5906 5906 5906 5906 5906 5906 5906 5905 5905 5904 5904 5904 5903
5819 5821 5821 5822 5825 5826 5828 5832 5834 5837 5843 5845 5846 5852 5857 5858 5860 5863 5865 5867 5868 5867 5868 5871 5872 5874 5875 5873 5872 5874 5875 5874 5877 5880 5882 5885 5887 5884 5882 5884 5885 5885 5886 5888 5890 5892 5893 5894 5895 5896 5896 5897 5897 5897 5898 5897 5897 5897 5898 5898 5898 5899 5900 5900 5900 5901 5901 5902 5903 5903 5903 5903 5904 5904 5904 5904 5904 5905 5905 5904 5903 5903 5903 5902 5902 5901
5815 5818 5819 5818 5820 5821 5821 5825 5829 5831 5836 5841 5844 5849 5852 5850 5852 5856 5859 5861 5862 5863 5865 5867 5868 5870 5872 5871 5870 5871 5871 5872 5875 5877 5879 5881 5884 5884 5882 5882 5881 5881 5882 5886 5888 5889 5891 5892 5893 5894 5895 5895 5895 5895 5896 5896 5896 5896 5896 5896 5896 5897 5897 5897 5898 5898 5899 5899 5900 5900 5900 5901 5901 5902 5902 5902 5903 5903 5903 5902 5902 5901 5901 5901 5900 5900
5810 5812 5815 5816 5815 5816 5816 5818 5823 5827 5829 5835 5840 5843 5844 5844 5848 5852 5852 5853 5857 5860 5861 5864 5864 5864 5867 5869 5868 5868 5869 5870 5871 5875 5876 5878 5883 5886 5884 5879 5879 5880 5881 5884 5887 5887 5889 5890 5891 5892 5893 5893 5894 5894 5894 5894 5894 5894 5894 5894 5895 5895 5895 5895 5895 5896 5896 5896 5897 5897 5898 5899 5899 5900 5900 5900 5901 5901 5901 5900 5900 5900 5899 5899 5898 5897
5806 5806 5810 5814 5811 5810 5812 5815 5820 5824 5825 5828 5831 5834 5837 5840 5844 5847 5846 5849 5853 5855 5857 5859 5859 5859 5864 5868 5867 5866 5866 5867 5869 5873 5874 5876 5881 5886 5885 5879 5877 5880 5881 5882 5884 5886 5886 5888 5889 5890 5891 5891 5891 5892 5892 5892 5893 5893 5893 5893 5893 5893 5893 5893 5893 5894 5894 5894 5895 5896 5896 5897 5897 5898 5898 5899 5899 5899 5898 5898 5898 5898 5897 5897 5896 5895
5802 5801 5803 5810 5808 5805 5809 5814 5816 5819 5821 5822 5824 5827 5832 5836 5840 5841 5842 5847 5850 5848 5851 5855 5856 5857 5861 5865 5866 5864 5863 5864 5868 5871 5873 5875 5878 5881 5883 5880 5876 5878 5880 5880 5882 5883 5884 5885 5886 5888 5888 5889 5889 5890 5890 5891 5891 5891 5891 5891 5891 5891 5891 5891 5891 5892 5892 5893 5893 5894 5894 5895 5896 5896 5896 5897 5897 5896 5895 5896 5896 5896 5895 5894 5893 5892
5798 5798 5797 5802 5804 5803 5806 5808 5809 5812 5815 5818 5819 5823 5828 5831 5834 5835 5836 5842 5845 5844 5847 5850 5851 5854 5858 5862 5863 5861 5859 5861 5866 5868 5869 5871 5872 5875 5880 5879 5874 5875 5878 5878 5879 5880 5881 5883 5884 5885 5886 5887 5887 5888 5888 5888 5889 5890 5890 5890 5890 5890 5890 5890 5890 5891 5891 5892 5892 5892 5893 5893 5894 5894 5894 5895 5894 5894 5893 5893 5894 5894 5893 5892 5891 5890
5791 5793 5793 5796 5800 5802 5803 5804 5804 5806 5809 5811 5814 5817 5820 5823 5828 5830 5833 5838 5840 5840 5843 5845 5844 5847 5854 5858 5859 5858 5855 5857 5861 5863 5865 5867 5868 5872 5875 5873 5871 5873 5876 5877 5877 5877 5879 5880 5881 5883 5884 5884 5885 5885 5886 5886 5887 5888 5888 5888 5888 5888 5888 5888 5889 5889 5889 5890 5890 5891 5891 5891 5892 5892 5892 5892 5892 5891 5891 5892 5893 5892 5891 5890 5890 5888
5785 5787 5789 5790 5793 5796 5798 5798 5799 5800 5802 5805 5809 5811 5813 5818 5823 5825 5829 5833 5832 5832 5836 5838 5838 5842 5848 5852 5854 5856 5854 5852 5855 5858 5861 5862 5863 5867 5869 5867 5868 5872 5873 5874 5875 5875 5876 5878 5879 5880 5882 5882 5882 5883 5884 5884 5885 5885 5886 5886 5886 5886 5886 5886 5887 5887 5888 5888 5888 5889 5889 5889 5890 5890 5890 5890 5890 5889 5889 5890 5892 5891 5889 5887 5886 5885
5779 5781 5783 5785 5786 5788 5791 5793 5795 5796 5798 5801 5804 5806 5809 5813 5816 5818 5822 5824 5822 5824 5829 5831 5834 5841 5846 5847 5850 5853 5851 5849 5851 5853 5857 5859 5860 5864 5865 5863 5866 5869 5869 5871 5872 5872 5873 5875 5876 5878 5879 5880 5880 5881 5882 5882 5883 5883 5884 5884 5884 5884 5884 5885 5885 5885 5886 5886 5887 5887 5887 5887 5888 5887 5887 5887 5887 5887 5887 5888 5889 5889 5886 5884 5883 5882
5773 5775 5776 5778 5781 5784 5788 5792 5793 5794 5796 5797 5798 5802 5806 5808 5811 5813 5815 5815 5817 5821 5822 5823 5828 5836 5840 5842 5846 5850 5848 5845 5848 5851 5854 5857 5859 5860 5859 5859 5863 5866 5865 5867 5868 5869 5871 5872 5874 5875 5876 5877 5878 5878 5879 5880 5881 5881 5882 5882 5882 5882 5882 5883 5883 5883 5884 5884 5885 5885 5885 5885 5885 5885 5885 5885 5885 5885 5885 5886 5886 5885 5883 5881 5880 5878
5767 5770 5771 5773 5777 5780 5784 5788 5789 5790 5794 5796 5795 5796 5800 5804 5807 5808 5808 5810 5815 5817 5815 5818 5823 5826 5831 5838 5842 5846 5845 5843 5845 5848 5850 5853 5855 5854 5854 5857 5861 5862 5861 5863 5864 5866 5867 5868 5870 5872 5873 5874 5874 5875 5877 5878 5878 5879 5879 5880 5880 5880 5880 5880 5881 5881 5882 5882 5883 5883 5883 5883 5883 5883 5883 5883 5883 5882 5882 5883 5883 5881 5880 5878 5876 5874
5762 5765 5768 5771 5773 5776 5779 5782 5784 5786 5790 5793 5792 5792 5795 5798 5800 5802 5803 5806 5811 5811 5811 5816 5819 5818 5823 5831 5836 5840 5841 5841 5842 5843 5846 5849 5850 5850 5852 5855 5857 5857 5858 5859 5860 5862 5863 5864 5867 5868 5869 5870 5871 5872 5874 5875 5876 5877 5877 5877 5877 5877 5878 5878 5879 5879 5879 5880 5880 5881 5881 5880 5880 5880 5880 5880 5880 5880 5879 5880 5879 5877 5876 5875 5873 5870
5757 5760 5764 5767 5768 5770 5773 5776 5779 5781 5784 5787 5787 5789 5791 5793 5794 5796 5798 5801 5804 5805 5807 5812 5814 5814 5817 5822 5827 5833 5837 5839 5840 5839 5840 5844 5845 5847 5850 5851 5851 5852 5853 5854 5856 5857 5858 5860 5862 5864 5865 5866 5867 5869 5870 5872 5873 5874 5874 5874 5874 5874 5875 5875 5876 5876 5877 5878 5878 5878 5878 5878 5877 5877 5877 5877 5877 5876 5876 5876 5875 5874 5872 5871 5869 5866
5751 5754 5758 5761 5763 5764 5767 5771 5773 5775 5778 5781 5783 5786 5788 5789 5790 5791 5793 5796 5798 5799 5802 5806 5807 5808 5812 5815 5818 5824 5830 5834 5835 5835 5836 5838 5840 5843 5846 5845 5846 5848 5849 5850 5852 5853 5854 5856 5858 5860 5862 5863 5864 5866 5867 5869 5870 5870 5871 5871 5871 5872 5872 5873 5874 5874 5874 5875 5875 5875 5875 5875 5874 5874 5874 5874 5873 5873 5873 5872 5872 5870 5868 5867 5865 5863
5745 5748 5752 5756 5757 5758 5762 5765 5767 5770 5772 5773 5776 5779 5782 5784 5786 5787 5788 5790 5791 5793 5796 5799 5799 5801 5807 5810 5810 5813 5820 5825 5829 5831 5832 5833 5836 5838 5839 5839 5842 5845 5846 5848 5849 5849 5850 5852 5855 5858 5859 5860 5861 5862 5864 5865 5867 5867 5868 5868 5869 5869 5869 5870 5871 5871 5872 5872 5872 5872 5872 5871 5871 5871 5871 5870 5870 5870 5869 5869 5867 5866 5864 5863 5861 5859
5740 5742 5747 5750 5751 5754 5758 5760 5763 5766 5765 5764 5766 5771 5775 5778 5781 5784 5785 5785 5786 5788 5789 5790 5793 5797 5802 5804 5803 5805 5811 5816 5822 5827 5828 5829 5831 5834 5834 5836 5840 5843 5844 5844 5845 5845 5846 5848 5851 5854 5856 5857 5858 5859 5860 5862 5863 5864 5865 5865 5866 5866 5867 5868 5869 5868 5868 5869 5869 5869 5868 5868 5868 5868 5867 5867 5866 5866 5865 5865 5863 5861 5860 5858 5857 5854
5736 5736 5741 5745 5746 5750 5754 5756 5759 5759 5757 5759 5764 5767 5769 5772 5775 5779 5782 5783 5785 5786 5786 5786 5790 5793 5796 5797 5798 5800 5803 5807 5813 5819 5824 5824 5825 5828 5830 5833 5837 5839 5839 5839 5841 5842 5842 5844 5847 5850 5852 5853 5854 5855 5856 5858 5859 5861 5861 5862 5863 5864 5864 5865 5865 5865 5865 5865 5865 5865 5865 5865 5865 5865 5864 5863 5863 5862 5861 5860 5859 5858 5856 5854 5852 5850
5729 5731 5736 5741 5742 5745 5749 5750 5751 5750 5752 5758 5762 5762 5764 5767 5769 5772 5775 5780 5783 5783 5784 5786 5787 5788 5789 5791 5793 5795 5796 5800 5805 5810 5815 5819 5820 5822 5825 5828 5832 5835 5834 5834 5837 5838 5838 5840 5844 5846 5848 5849 5850 5851 5852 5854 5856 5857 5858 5859 5860 5861 5861 5861 5861 5861 5861 5862 5862 5862 5862 5862 5861 5861 5860 5859 5858 5858 5857 5856 5855 5853 5851 5849 5847 5846
5723 5726 5732 5735 5737 5739 5742 5743 5744 5746 5751 5755 5755 5757 5759 5760 5761 5762 5764 5770 5776 5778 5781 5783 5784 5785 5786 5786 5788 5790 5789 5792 5798 5802 5807 5812 5815 5818 5819 5822 5826 5829 5828 5829 5832 5832 5833 5837 5840 5842 5844 5845 5846 5847 5848 5850 5852 5853 5854 5856 5856 5857 5858 5858 5858 5858 5858 5858 5858 5859 5858 5858 5858 5857 5856 5855 5854 5854 5852 5851 5850 5848 5847 5845 5843 5841
5719 5722 5726 5729 5731 5734 5736 5738 5740 5743 5746 5748 5749 5750 5751 5750 5752 5753 5755 5760 5766 5769 5773 5776 5778 5781 5783 5784 5785 5785 5784 5786 5791 5796 5800 5805 5809 5812 5813 5816 5821 5824 5823 5825 5827 5828 5829 5833 5836 5838 5840 5841 5842 5843 5844 5846 5847 5849 5851 5852 5853 5853 5854 5854 5854 5854 5854 5854 5854 5854 5854 5854 5854 5853 5852 5851 5850 5849 5848 5846 5845 5844 5842 5840 5838 5836
5713 5716 5720 5724 5726 5729 5732 5734 5735 5737 5739 5741 5741 5741 5742 5745 5748 5750 5752 5756 5760 5763 5766 5769 5772 5774 5777 5779 5780 5779 5779 5780 5784 5789 5794 5797 5801 5805 5807 5811 5815 5817 5817 5820 5823 5823 5825 5829 5832 5834 5836 5837 5837 5838 5840 5841 5843 5845 5847 5848 5849 5850 5850 5851 5851 5851 5851 5850 5850 5850 5850 5850 5850 5849 5848 5848 5846 5845 5843 5842 5841 5839 5837 5835 5833 5831
5708 5711 5715 5717 5720 5724 5726 5728 5730 5732 5734 5736 5737 5738 5740 5742 5744 5747 5750 5753 5756 5759 5759 5759 5762 5764 5767 5770 5773 5773 5774 5774 5777 5784 5788 5790 5794 5798 5801 5805 5808 5809 5812 5816 5818 5819 5822 5825 5828 5830 5832 5833 5833 5835 5836 5837 5839 5842 5843 5844 5845 5846 5846 5847 5847 5847 5847 5846 5846 5846 5846 5846 5846 5845 5844 5843 5842 5840 5839 5837 5836 5835 5832 5830 5829 5827
5702 5705 5708 5711 5715 5719 5721 5723 5725 5728 5729 5730 5734 5736 5737 5739 5741 5744 5747 5748 5750 5753 5753 5754 5756 5757 5759 5763 5765 5766 5767 5769 5773 5779 5782 5784 5788 5791 5793 5798 5802 5803 5806 5810 5813 5815 5818 5821 5823 5826 5827 5829 5830 5831 5832 5834 5836 5838 5839 5840 5841 5842 5842 5842 5842 5842 5842 5842 5841 5841 5841 5841 5841 5841 5840 5839 5837 5835 5834 5833 5831 5830 5827 5825 5824 5822
5696 5699 5703 5706 5711 5714 5716 5718 5721 5723 5723 5726 5729 5731 5732 5734 5737 5738 5740 5743 5746 5748 5749 5751 5752 5754 5756 5759 5760 5760 5762 5765 5769 5772 5774 5778 5780 5782 5787 5793 5795 5797 5801 5805 5808 5811 5814 5816 5819 5821 5823 5824 5826 5827 5828 5830 5831 5833 5834 5835 5836 5836 5837 5837 5837 5838 5837 5836 5836 5836 5836 5836 5836 5836 5835 5834 5832 5831 5830 5828 5826 5825 5822 5820 5819 5817
5690 5693 5697 5701 5706 5710 5712 5714 5717 5718 5719 5721 5724 5726 5728 5730 5731 5732 5735 5739 5742 5744 5745 5746 5748 5750 5752 5754 5755 5756 5759 5762 5764 5765 5766 5769 5772 5776 5782 5787 5789 5792 5796 5799 5803 5807 5809 5811 5814 5816 5818 5820 5822 5823 5824 5825 5826 5828 5829 5830 5830 5831 5832 5832 5832 5832 5832 5831 5831 5831 5831 5831 5831 5830 5829 5828 5827 5826 5824 5823 5821 5819 5818 5816 5814 5813
5685 5688 5692 5697 5701 5705 5708 5710 5712 5713 5714 5716 5718 5720 5723 5726 5727 5730 5733 5735 5736 5738 5740 5742 5745 5747 5748 5749 5751 5753 5755 5757 5758 5758 5760 5764 5768 5772 5777 5780 5783 5787 5792 5796 5799 5802 5804 5807 5809 5812 5814 5816 5817 5818 5819 5821 5822 5823 5824 5825 5826 5827 5827 5827 5827 5826 5826 5826 5826 5825 5826 5826 5825 5825 5824 5823 5822 5820 5819 5817 5815 5814 5813 5811 5810 5808
5681 5685 5689 5693 5697 5701 5704 5706 5707 5708 5708 5709 5713 5716 5719 5723 5725 5727 5730 5730 5730 5733 5736 5738 5741 5743 5744 5746 5747 5748 5750 5751 5751 5753 5757 5761 5764 5767 5771 5775 5779 5783 5787 5790 5793 5796 5799 5802 5804 5807 5808 5810 5812 5814 5816 5817 5818 5819 5820 5821 5821 5821 5821 5821 5821 5820 5820 5820 5820 5820 5821 5821 5820 5819 5819 5817 5816 5815 5813 5812 5810 5809 5808 5806 5805 5803
5676 5678 5682 5687 5691 5695 5698 5699 5701 5702 5702 5704 5709 5713 5715 5718 5721 5722 5724 5725 5725 5727 5730 5733 5736 5738 5740 5741 5741 5742 5744 5745 5747 5749 5752 5755 5758 5761 5765 5770 5774 5778 5781 5785 5788 5791 5795 5797 5799 5802 5804 5807 5809 5810 5811 5812 5813 5814 5815 5815 5815 5816 5816 5815 5815 5814 5814 5814 5814 5815 5816 5815 5815 5814 5813 5811 5810 5809 5808 5806 5804 5803 5802 5800 5799 5798
5668 5671 5676 5681 5684 5687 5690 5692 5695 5697 5697 5700 5705 5709 5710 5712 5715 5717 5718 5719 5720 5722 5725 5727 5730 5733 5735 5736 5737 5737 5738 5740 5742 5743 5745 5748 5752 5756 5760 5764 5768 5773 5776 5780 5784 5787 5790 5792 5795 5798 5800 5802 5804 5805 5806 5807 5808 5809 5809 5809 5810 5810 5809 5809 5808 5808 5807 5808 5809 5810 5810 5809 5808 5808 5806 5805 5804 5803 5802 5800 5799 5797 5796 5795 5794 5792
5665 5669 5674 5678 5680 5682 5684 5687 5689 5691 5693 5696 5701 5704 5706 5707 5709 5711 5713 5714 5715 5717 5720 5721 5724 5727 5729 5731 5732 5732 5733 5735 5737 5738 5741 5744 5747 5751 5755 5759 5763 5767 5771 5775 5778 5781 5784 5787 5790 5792 5795 5797 5798 5800 5801 5802 5803 5803 5804 5804 5804 5804 5803 5802 5802 5802 5802 5803 5804 5804 5804 5803 5802 5801 5800 5799 5798 5797 5796 5795 5793 5792 5790 5789 5788 5787
5662 5667 5671 5673 5674 5677 5680 5682 5685 5689 5691 5693 5697 5700 5702 5703 5704 5705 5707 5708 5710 5712 5715 5717 5719 5721 5724 5726 5727 5728 5730 5732 5733 5734 5737 5740 5743 5747 5750 5754 5759 5762 5766 5770 5773 5777 5780 5783 5785 5788 5790 5792 5794 5795 5796 5797 5798 5798 5799 5799 5800 5800 5799 5798 5798 5798 5798 5798 5798 5798 5797 5797 5796 5796 5795 5794 5793 5792 5790 5789 5787 5786 5785 5784 5783 5782
5659 5663 5666 5668 5670 5673 5676 5679 5682 5686 5687 5689 5692 5695 5698 5699 5700 5701 5702 5704 5706 5708 5710 5714 5716 5717 5719 5722 5723 5725 5728 5729 5730 5732 5735 5737 5740 5743 5747 5751 5755 5758 5762 5766 5769 5772 5775 5778 5780 5783 5785 5787 5788 5789 5791 5792 5793 5794 5794 5795 5796 5796 5796 5795 5794 5794 5794 5793 5793 5792 5792 5791 5790 5790 5789 5788 5787 5786 5785 5783 5782 5780 5779 5778 5777 5776
5656 5658 5661 5663 5666 5670 5672 5675 5677 5680 5683 5686 5689 5691 5693 5695 5697 5698 5699 5700 5702 5703 5705 5708 5710 5713 5716 5719 5721 5723 5725 5726 5727 5730 5732 5734 5737 5740 5743 5747 5750 5754 5757 5760 5763 5766 5769 5772 5774 5777 5779 5781 5782 5783 5785 5786 5788 5789 5790 5790 5791 5791 5790 5789 5789 5789 5788 5787 5788 5787 5786 5785 5785 5784 5784 5782 5781 5780 5779 5777 5776 5775 5774 5772 5771 5771
5652 5654 5657 5660 5663 5666 5668 5671 5674 5676 5680 5683 5686 5687 5689 5690 5691 5693 5694 5696 5697 5699 5700 5703 5705 5709 5712 5715 5717 5719 5721 5722 5724 5726 5728 5731 5734 5737 5739 5743 5746 5749 5752 5755 5757 5760 5763 5766 5768 5771 5773 5774 5776 5777 5779 5781 5782 5783 5784 5785 5785 5785 5784 5783 5782 5782 5781 5781 5782 5781 5780 5780 5779 5779 5778 5776 5775 5774 5773 5772 5771 5770 5768 5767 5766 5765